Clarksville, TN

8:30 PM CDT on June 25, 2017 (GMT -0500)
Outlaw

Weather History for KCKV - March, 2013

Change the Weather History Date:

Friday, March 22, 2013

  Actual Average Record
Temperature  
Mean Temperature 39 °F 51 °F  
Max Temperature 45 °F 63 °F 85 °F (1966)
Min Temperature 32 °F 39 °F 11 °F (1965)
Degree Days  
Heating Degree Days 26    
Month to date heating degree days 502  
Since 1 July heating degree days 3419  
Cooling Degree Days 0    
Month to date cooling degree days 0  
Year to date cooling degree days  
Moisture  
Dew Point 22 °F    
Average Humidity 48    
Maximum Humidity 56    
Minimum Humidity 40    
Precipitation  
Precipitation 0.00 in 0.14 in 1.97 in (1952)
Month to date precipitation 3.52 2.71  
Year to date precipitation 10.19  
Sea Level Pressure  
Sea Level Pressure 30.03 in    
Wind  
Wind Speed 6 mph (East)    
Max Wind Speed 10 mph    
Max Gust Speed 14 mph    
Visibility 10 miles    
Events      
T = Trace of Precipitation, MM = Missing Value Source: NWS Daily Summary

Daily Weather History Graph

Daily Weather History Graph

Search for Another Location

Airport or City:

Trip Planner

Search our weather history database for the weather conditions in past years. The results will help you decide how hot, cold, wet, or windy it might be!

Date:

Astronomy

Mar. 22, 2013 Rise Set
Actual Time 6:49 AM CDT 7:03 PM CDT
Civil Twilight 6:24 AM CDT 7:29 PM CDT
Nautical Twilight 5:53 AM CDT 7:59 PM CDT
Astronomical Twilight 5:23 AM CDT 8:30 PM CDT
Moon 2:36 PM CDT (3/22) 3:43 AM CDT (3/22)
Length of Visible Light 13h 05m
Length of Day
12h 13m
Waxing Gibbous, 77% of the Moon is Illuminated
Mar 22
Waxing Gibbous
Mar 27
Full
Apr 2
Last Quarter
Apr 10
New
Apr 18
First Quarter

Hourly Weather History & Observations

Time (CDT) Temp. Windchill Dew Point Humidity Pressure Visibility Wind Dir Wind Speed Gust Speed Precip Events Conditions
12:52 AM 33.1 °F 26.9 °F 19.0 °F 56% 30.04 in 10.0 mi East 6.9 mph - N/A   Scattered Clouds
1:52 AM 33.1 °F 27.7 °F 18.0 °F 54% 30.04 in 10.0 mi ENE 5.8 mph - N/A   Overcast
2:52 AM 33.1 °F 28.7 °F 18.0 °F 54% 30.04 in 10.0 mi East 4.6 mph - N/A   Overcast
3:52 AM 33.1 °F 27.7 °F 18.0 °F 54% 30.03 in 10.0 mi East 5.8 mph - N/A   Overcast
4:52 AM 33.1 °F 28.7 °F 18.0 °F 54% 30.03 in 10.0 mi East 4.6 mph - N/A   Overcast
5:52 AM 33.1 °F 27.7 °F 19.0 °F 56% 30.02 in 10.0 mi East 5.8 mph - N/A   Overcast
6:52 AM 34.0 °F 28.8 °F 19.0 °F 54% 30.04 in 10.0 mi South 5.8 mph - N/A   Overcast
7:52 AM 34.0 °F 28.8 °F 19.9 °F 56% 30.05 in 10.0 mi East 5.8 mph - N/A   Overcast
8:52 AM 35.1 °F 31.0 °F 21.0 °F 57% 30.06 in 10.0 mi East 4.6 mph - N/A   Overcast
9:52 AM 36.0 °F 31.1 °F 21.0 °F 55% 30.06 in 10.0 mi ESE 5.8 mph - N/A   Overcast
10:52 AM 37.9 °F 32.1 °F 21.0 °F 51% 30.04 in 10.0 mi East 8.1 mph - N/A   Overcast
11:52 AM 39.0 °F 34.8 °F 21.0 °F 49% 30.04 in 10.0 mi SE 5.8 mph - N/A   Overcast
12:52 PM 41.0 °F 38.0 °F 21.0 °F 45% 30.05 in 10.0 mi East 4.6 mph - N/A   Overcast
1:52 PM 42.1 °F 38.4 °F 21.9 °F 45% 30.02 in 10.0 mi ESE 5.8 mph - N/A   Overcast
2:52 PM 43.0 °F 38.8 °F 21.9 °F 43% 30.00 in 10.0 mi ESE 6.9 mph - N/A   Overcast
3:52 PM 44.1 °F 39.5 °F 21.9 °F 42% 29.99 in 10.0 mi East 8.1 mph - N/A   Overcast
4:52 PM 44.1 °F 40.1 °F 24.1 °F 45% 29.98 in 10.0 mi ENE 6.9 mph - N/A   Overcast
6:52 PM 42.1 °F 38.4 °F 25.0 °F 51% 30.00 in 10.0 mi ENE 5.8 mph - N/A   Overcast
7:52 PM 42.1 °F 37.1 °F 25.0 °F 51% 30.01 in 10.0 mi ENE 8.1 mph - N/A   Overcast
8:52 PM 42.1 °F 37.1 °F 25.0 °F 51% 30.01 in 10.0 mi ENE 8.1 mph - N/A   Overcast
9:52 PM 41.0 °F 36.4 °F 25.0 °F 53% 30.01 in 10.0 mi East 6.9 mph - N/A   Overcast
10:52 PM 41.0 °F 36.4 °F 25.0 °F 53% 30.01 in 10.0 mi East 6.9 mph - N/A   Overcast
11:52 PM 41.0 °F 37.1 °F 26.1 °F 55% 30.01 in 10.0 mi ENE 5.8 mph - N/A   Overcast